Regional Weather Roundup
Issued by NWS State College, PA

Home | Current Version | Previous Version | Graphics & Text | Print | Product List | Glossary On
Versions: 1 2 3 4 5 6 7 8 9 10 11 12 13 14 15 16 17 18 19 20 21 22 23 24 25 26 27 28 29 30 31 32 33 34 35 36 37 38 39 40 41 42 43 44 45 46 47 48 49 50
000
ASUS41 KCTP 240303
RWRCTP

REGIONAL WEATHER ROUNDUP
NATIONAL WEATHER SERVICE STATE COLLEGE PA
1100 PM EDT MON OCT 23 2017

Note: "fair" indicates few or no clouds below 12,000 feet with no
significant weather and/or obstructions to visibility.

* = STATION THAT DOES NOT REPORT PRECIPITATION /E.G. RAIN...SNOW...ETC/
    THUNDER OR FOG.

PAZ002>004-007>009-013>016-020>023-029>032-240400-
WESTERN PENNSYLVANIA

CITY           SKY/WX    TMP DP  RH WIND       PRES   REMARKS
ERIE           CLOUDY    59  53  80 S14       29.60F
MEADVILLE      LGT RAIN  54  54 100 VRB7      29.64F
FRANKLIN*      RAIN      54  53  97 S10       29.67F
NEW CASTLE     LGT RAIN  55  55 100 S9        29.66F
BEAVER COUNTY  NOT AVBL
BUTLER*        RAIN      55  53  93 SE8       29.70S
PITTSBURGH INT LGT RAIN  56  55  97 S9        29.68F
PITTSBURGH     CLOUDY    55  52  89 SE8       29.69F
INDIANA*       CLOUDY    55  55 100 W8        29.73F FOG
LATROBE        LGT RAIN  55  55 100 E3        29.72F
WASHINGTON CO* CLOUDY    55  53  93 SE7       29.72F
$$

PAZ004>006-010>012-017>019-024>028-033>037-041-042-045-046-049>053-240400-
CENTRAL PENNSYLVANIA

CITY           SKY/WX    TMP DP  RH WIND       PRES   REMARKS
BRADFORD       LGT RAIN  63  56  78 S14G26    29.72F
DUBOIS         LGT RAIN  55  53  93 CALM      29.70F FOG
CLEARFIELD     RAIN      65  59  81 SE9G18    29.73F
JOHNSTOWN      LGT RAIN  61  59  93 SE18G28   29.70F FOG
ALTOONA        RAIN      67  61  81 SE21G33   29.72F
STATE COLLEGE  MOCLDY    68  59  73 SE10G18   29.77F
WILLIAMSPORT   LGT RAIN  71  62  73 E16G26    29.79F
SELINSGROVE    CLOUDY    71  63  75 SE18G35   29.83F
FT INDIANTOWN  CLOUDY    67  67 100 SE6       29.87F
CAPITAL CITY   CLOUDY    71  62  73 SE15G24   29.84F
HARRISBURG     CLOUDY    70  64  81 SE17G25   29.84F
YORK           CLOUDY    70  64  81 SE13G25   29.84F
$$

PAZ038>040-043-044-047-048-054-055-060>062-067>071-240400-
EASTERN PENNSYLVANIA

CITY           SKY/WX    TMP DP  RH WIND       PRES   REMARKS
SCRANTON       CLOUDY    70  60  70 S8        29.89F
MOUNT POCONO   CLOUDY    62  61  96 SE18G26   29.98F
ALLENTOWN      CLOUDY    71  63  75 SE15G25   29.93F
QUAKERTOWN*    CLOUDY    68  66  94 SE13G18   29.95F
READING        LGT RAIN  70  66  87 SE13G21   29.89F
LANCASTER      CLOUDY    68  65  90 SE16G23   29.88F
COATESVILLE    CLOUDY    68  66  94 SE8G18    29.93F
POTTSTOWN      MOCLDY    69  65  86 VRB7G20   29.94F
BLUE BELL      CLOUDY    68  64  88 SE7       29.95F
DOYLESTOWN     CLOUDY    68  65  90 SE9G22    29.95F
WILLOW GROVE   NOT AVBL
NORTH PHILA    CLOUDY    71  66  84 SE9       29.96F
PHILADELPHIA   CLOUDY    70  65  84 SE12      29.93F
$$




USA.gov is the U.S. government's official web portal to all federal, state and local government web resources and services.